USA 169 (MILSTAR-2 4)

Last updated on March 5, 2021, 6:34 a.m. UTC

1 27711U 03012A   21063.89893848 -.00000204  00000-0  00000-0 0  9990
2 27711   9.4335  43.1823 0002640 308.7599 286.6715  1.00272742 13596
UTC
Height (km)
Latitude
Longitude
Inclination
Orbital Period
UTC large
Height (km)
Speed (km/s)
/
Latitude / Longitude
Inclination (degrees)
Orbital Period (minutes)
Azimuth
Elevation
Range (km)
Doppler Factor
iOS Compass Heading
iOS Angle

Next 30 passes for location: Hong Kong

Rise time Rise Azimuth (degrees) Set time Set Azimuth (degrees) Duration Max altitude (degrees)

No matching passes for this satellites